Miscellaneous Local Product
Issued by NWS Hastings, NE

Home | Current Version | Previous Version | Text Only | Print | Product List | Glossary On
Versions: 1 2 3 4 5 6 7 8 9 10 11 12 13 14 15 16 17 18 19 20 21 22 23 24 25 26 27 28 29 30 31 32 33 34 35 36 37 38 39 40 41 42 43 44 45 46 47 48 49 50
000
AXUS43 KGID 300102
MISGRI

GID CWA HOURLY WEATHER ROUNDUP
NATIONAL WEATHER SERVICE HASTINGS NE
800 PM CDT WED JUL 29 2015

NOTE: "FAIR" INDICATES FEW OR NO CLOUDS BELOW 12,000 FEET WITH NO
SIGNIFICANT WEATHER AND/OR OBSTRUCTIONS TO VISIBILITY.

...SOUTH CENTRAL NEBRASKA...

CITY           SKY/WX    TMP DP  RH WIND       PRES   REMARKS
GRAND ISLAND   CLEAR     79  54  41 SW6       30.19S
HASTINGS       CLEAR     77  55  46 S3        30.20S
KEARNEY        PTCLDY    77  57  50 SE6       30.20S
ORD            CLEAR     79  56  45 SW7       30.16S
YORK           PTCLDY    75  64  69 S5        30.18S
AURORA         PTCLDY    75  60  60 SW5       30.18S
LEXINGTON      CLEAR     80  48  32 SE10      30.20S
HOLDREGE       CLEAR     76  56  48 E6        30.21S
HEBRON         PTCLDY    78  56  46 CALM      30.18S

...NEBRASKA PANHANDLE...

CITY           SKY/WX    TMP DP  RH WIND       PRES   REMARKS
CHADRON        SUNNY     84  49  29 NE8       30.15S
ALLIANCE       SUNNY     81  50  33 S14       30.18F
SCOTTSBLUFF    SUNNY     83  53  35 S7        30.18S
SIDNEY         MOSUNNY   79  43  27 S16G22    30.24S

...WESTERN AND NORTH CENTRAL NEBRASKA...

CITY           SKY/WX    TMP DP  RH WIND       PRES   REMARKS
VALENTINE      SUNNY     84  49  29 SW5       30.15S
AINSWORTH      SUNNY     82  49  31 S9        30.17S
ONEILL         CLEAR     82  57  42 CALM      30.15S
BROKEN BOW     CLEAR     79  54  41 SW5       30.20S
IMPERIAL       SUNNY     81  38  21 S13       30.22R
NORTH PLATTE   SUNNY     78  51  38 S6        30.21R
MCCOOK         CLEAR     80  53  39 E8        30.20S

...EASTERN NEBRASKA...

CITY           SKY/WX    TMP DP  RH WIND       PRES   REMARKS
NORFOLK        CLEAR     80  59  48 S7        30.13S
SO SIOUX CITY  CLEAR     78  66  66 SW6       30.10S
TEKAMAH        CLEAR     78  69  73 S6        30.12S
COLUMBUS       CLEAR     79  57  47 SW7       30.15S
ALBION         CLEAR     82  51  34 SW5       30.16S
OMAHA EPPLEY   PTCLDY    81  57  43 SW7       30.13S
OFFUTT AFB     PTCLDY    78  61  54 SW7       30.13F
MILLARD        PTCLDY    80  59  48 SW3       30.14F
LINCOLN        PTCLDY    80  54  40 SW5       30.16F
NEBRASKA CITY  MOCLDY    79  58  48 CALM      30.16S
BEATRICE       PTCLDY    80  57  45 CALM      30.16F
FALLS CITY     PTCLDY    79  68  69 CALM      30.14S

...NORTHERN KANSAS...

CITY           SKY/WX    TMP DP  RH WIND       PRES   REMARKS
GOODLAND       SUNNY     77  45  32 SE10      30.24S
HILL CITY      CLEAR     80  53  39 SE10      30.19S
NORTON         CLEAR     79  46  31 E9        30.19
PHILLIPSBURG   CLEAR     82  55  39 CALM      30.18S
SMITH CENTER   CLEAR     79  55  44 NE7       30.19S
HAYS           PTCLDY    81  54  39 E15       30.18R
RUSSELL        PTCLDY    80  63  55 E14       30.16S
CONCORDIA      CLEAR     78  63  59 E3        30.18R
SALINA         PTCLDY    82  66  58 NE9       30.14S
TOPEKA         CLEAR     80  69  69 NE5       30.14S



USA.gov is the U.S. government's official web portal to all federal, state and local government web resources and services.